#datetime,building,power
2023-07-27T00:00:00,mnr,5.70
2023-07-27T00:01:00,mnr,4.99
2023-07-27T00:02:00,mnr,5.36
2023-07-27T00:03:00,mnr,5.00
2023-07-27T00:04:00,mnr,4.86
2023-07-27T00:05:00,mnr,4.86
2023-07-27T00:06:00,mnr,4.91
2023-07-27T00:07:00,mnr,4.91
2023-07-27T00:08:00,mnr,4.88
2023-07-27T00:09:00,mnr,4.80
2023-07-27T00:10:00,mnr,4.93
2023-07-27T00:11:00,mnr,4.86
2023-07-27T00:12:00,mnr,5.60
2023-07-27T00:13:00,mnr,5.67
2023-07-27T00:14:00,mnr,6.11
2023-07-27T00:15:00,mnr,5.99
2023-07-27T00:16:00,mnr,6.09
2023-07-27T00:17:00,mnr,5.92
2023-07-27T00:18:00,mnr,5.69
2023-07-27T00:19:00,mnr,5.52
2023-07-27T00:20:00,mnr,5.51
2023-07-27T00:21:00,mnr,5.53
2023-07-27T00:22:00,mnr,5.59
2023-07-27T00:23:00,mnr,5.70
2023-07-27T00:24:00,mnr,5.71
2023-07-27T00:25:00,mnr,6.01
2023-07-27T00:26:00,mnr,6.51
2023-07-27T00:27:00,mnr,6.54
2023-07-27T00:28:00,mnr,6.82
2023-07-27T00:29:00,mnr,6.58
2023-07-27T00:30:00,mnr,6.62
2023-07-27T00:31:00,mnr,6.57
2023-07-27T00:32:00,mnr,6.57
2023-07-27T00:33:00,mnr,6.52
2023-07-27T00:34:00,mnr,6.51
2023-07-27T00:35:00,mnr,5.88
2023-07-27T00:36:00,mnr,5.87
2023-07-27T00:37:00,mnr,5.62
2023-07-27T00:38:00,mnr,5.57
2023-07-27T00:39:00,mnr,5.31
2023-07-27T00:40:00,mnr,5.32
2023-07-27T00:41:00,mnr,4.92
2023-07-27T00:42:00,mnr,4.99
2023-07-27T00:43:00,mnr,4.87
2023-07-27T00:44:00,mnr,4.89
2023-07-27T00:45:00,mnr,4.93
2023-07-27T00:46:00,mnr,4.88
2023-07-27T00:47:00,mnr,4.90
2023-07-27T00:48:00,mnr,4.83
2023-07-27T00:49:00,mnr,4.82
2023-07-27T00:50:00,mnr,4.78
2023-07-27T00:51:00,mnr,4.94
2023-07-27T00:52:00,mnr,4.82
2023-07-27T00:53:00,mnr,4.71
2023-07-27T00:54:00,mnr,4.76
2023-07-27T00:55:00,mnr,4.72
2023-07-27T00:56:00,mnr,4.68
2023-07-27T00:57:00,mnr,4.69
2023-07-27T00:58:00,mnr,4.74
2023-07-27T00:59:00,mnr,4.74
2023-07-27T01:00:00,mnr,4.78
2023-07-27T01:01:00,mnr,4.79
2023-07-27T01:02:00,mnr,4.91
2023-07-27T01:03:00,mnr,4.31
2023-07-27T01:04:00,mnr,4.36
2023-07-27T01:05:00,mnr,4.32
2023-07-27T01:06:00,mnr,4.36
2023-07-27T01:07:00,mnr,4.31
2023-07-27T01:08:00,mnr,5.07
2023-07-27T01:09:00,mnr,4.36
2023-07-27T01:10:00,mnr,4.33
2023-07-27T01:11:00,mnr,4.35
2023-07-27T01:12:00,mnr,4.33
2023-07-27T01:13:00,mnr,4.56
2023-07-27T01:14:00,mnr,4.59
2023-07-27T01:15:00,mnr,4.57
2023-07-27T01:16:00,mnr,4.57
2023-07-27T01:17:00,mnr,4.58
2023-07-27T01:18:00,mnr,4.42
2023-07-27T01:19:00,mnr,4.47
2023-07-27T01:20:00,mnr,4.41
2023-07-27T01:21:00,mnr,4.42
2023-07-27T01:22:00,mnr,4.45
2023-07-27T01:23:00,mnr,4.35
2023-07-27T01:24:00,mnr,4.39
2023-07-27T01:25:00,mnr,4.38
2023-07-27T01:26:00,mnr,4.49
2023-07-27T01:27:00,mnr,4.51
2023-07-27T01:28:00,mnr,4.51
2023-07-27T01:29:00,mnr,4.42
2023-07-27T01:30:00,mnr,4.55
2023-07-27T01:31:00,mnr,4.50
2023-07-27T01:32:00,mnr,4.52
2023-07-27T01:33:00,mnr,4.42
2023-07-27T01:34:00,mnr,4.40
2023-07-27T01:35:00,mnr,4.35
2023-07-27T01:36:00,mnr,4.36
2023-07-27T01:37:00,mnr,4.34
2023-07-27T01:38:00,mnr,4.36
2023-07-27T01:39:00,mnr,4.38
2023-07-27T01:40:00,mnr,4.38
2023-07-27T01:41:00,mnr,5.08
2023-07-27T01:42:00,mnr,5.05
2023-07-27T01:43:00,mnr,5.13
2023-07-27T01:44:00,mnr,5.66
2023-07-27T01:45:00,mnr,5.47
2023-07-27T01:46:00,mnr,5.49
2023-07-27T01:47:00,mnr,5.45
2023-07-27T01:48:00,mnr,5.68
2023-07-27T01:49:00,mnr,5.58
2023-07-27T01:50:00,mnr,5.96
2023-07-27T01:51:00,mnr,6.00
2023-07-27T01:52:00,mnr,5.94
2023-07-27T01:53:00,mnr,6.02
2023-07-27T01:54:00,mnr,6.12
2023-07-27T01:55:00,mnr,6.07
2023-07-27T01:56:00,mnr,6.01
2023-07-27T01:57:00,mnr,6.08
2023-07-27T01:58:00,mnr,6.28
2023-07-27T01:59:00,mnr,5.81
2023-07-27T02:00:00,mnr,5.88
2023-07-27T02:01:00,mnr,5.34
2023-07-27T02:02:00,mnr,5.43
2023-07-27T02:03:00,mnr,5.94
2023-07-27T02:04:00,mnr,5.91
2023-07-27T02:05:00,mnr,5.80
2023-07-27T02:06:00,mnr,5.78
2023-07-27T02:07:00,mnr,6.22
2023-07-27T02:08:00,mnr,5.80
2023-07-27T02:09:00,mnr,5.83
2023-07-27T02:10:00,mnr,5.70
2023-07-27T02:11:00,mnr,5.72
2023-07-27T02:12:00,mnr,5.72
2023-07-27T02:13:00,mnr,5.72
2023-07-27T02:14:00,mnr,5.74
2023-07-27T02:15:00,mnr,5.79
2023-07-27T02:16:00,mnr,5.80
2023-07-27T02:17:00,mnr,5.73
2023-07-27T02:18:00,mnr,5.68
2023-07-27T02:19:00,mnr,5.69
2023-07-27T02:20:00,mnr,5.71
2023-07-27T02:21:00,mnr,5.56
2023-07-27T02:22:00,mnr,5.65
2023-07-27T02:23:00,mnr,5.60
2023-07-27T02:24:00,mnr,5.52
2023-07-27T02:25:00,mnr,5.68
2023-07-27T02:26:00,mnr,6.00
2023-07-27T02:27:00,mnr,5.76
2023-07-27T02:28:00,mnr,5.70
2023-07-27T02:29:00,mnr,5.14
2023-07-27T02:30:00,mnr,5.12
2023-07-27T02:31:00,mnr,5.20
2023-07-27T02:32:00,mnr,5.25
2023-07-27T02:33:00,mnr,5.15
2023-07-27T02:34:00,mnr,5.13
2023-07-27T02:35:00,mnr,5.06
2023-07-27T02:36:00,mnr,5.06
2023-07-27T02:37:00,mnr,5.07
2023-07-27T02:38:00,mnr,5.02
2023-07-27T02:39:00,mnr,4.69
2023-07-27T02:40:00,mnr,4.54
2023-07-27T02:41:00,mnr,4.38
2023-07-27T02:42:00,mnr,4.40
2023-07-27T02:43:00,mnr,4.37
2023-07-27T02:44:00,mnr,4.44
2023-07-27T02:45:00,mnr,4.48
2023-07-27T02:46:00,mnr,4.53
2023-07-27T02:47:00,mnr,4.57
2023-07-27T02:48:00,mnr,4.46
2023-07-27T02:49:00,mnr,4.48
2023-07-27T02:50:00,mnr,4.47
2023-07-27T02:51:00,mnr,4.53
2023-07-27T02:52:00,mnr,4.47
2023-07-27T02:53:00,mnr,4.45
2023-07-27T02:54:00,mnr,4.56
2023-07-27T02:55:00,mnr,4.56
2023-07-27T02:56:00,mnr,4.51
2023-07-27T02:57:00,mnr,4.52
2023-07-27T02:58:00,mnr,4.49
2023-07-27T02:59:00,mnr,4.57
2023-07-27T03:00:00,mnr,4.52
2023-07-27T03:01:00,mnr,4.50
2023-07-27T03:02:00,mnr,4.52
2023-07-27T03:03:00,mnr,4.37
2023-07-27T03:04:00,mnr,4.33
2023-07-27T03:05:00,mnr,4.80
2023-07-27T03:06:00,mnr,4.34
2023-07-27T03:07:00,mnr,4.29
2023-07-27T03:08:00,mnr,4.29
2023-07-27T03:09:00,mnr,4.31
2023-07-27T03:10:00,mnr,4.33
2023-07-27T03:11:00,mnr,4.31
2023-07-27T03:12:00,mnr,4.30
2023-07-27T03:13:00,mnr,4.29
2023-07-27T03:14:00,mnr,4.29
2023-07-27T03:15:00,mnr,4.28
2023-07-27T03:16:00,mnr,4.30
2023-07-27T03:17:00,mnr,4.72
2023-07-27T03:18:00,mnr,4.70
2023-07-27T03:19:00,mnr,5.89
2023-07-27T03:20:00,mnr,4.71
2023-07-27T03:21:00,mnr,4.69
2023-07-27T03:22:00,mnr,5.62
2023-07-27T03:23:00,mnr,5.61
2023-07-27T03:24:00,mnr,5.61
2023-07-27T03:25:00,mnr,5.62
2023-07-27T03:26:00,mnr,5.66
2023-07-27T03:27:00,mnr,5.71
2023-07-27T03:28:00,mnr,5.81
2023-07-27T03:29:00,mnr,5.77
2023-07-27T03:30:00,mnr,6.26
2023-07-27T03:31:00,mnr,5.74
2023-07-27T03:32:00,mnr,5.77
2023-07-27T03:33:00,mnr,5.69
2023-07-27T03:34:00,mnr,5.70
2023-07-27T03:35:00,mnr,5.62
2023-07-27T03:36:00,mnr,5.65
2023-07-27T03:37:00,mnr,5.83
2023-07-27T03:38:00,mnr,5.35
2023-07-27T03:39:00,mnr,5.79
2023-07-27T03:40:00,mnr,5.74
2023-07-27T03:41:00,mnr,5.66
2023-07-27T03:42:00,mnr,6.33
2023-07-27T03:43:00,mnr,5.68
2023-07-27T03:44:00,mnr,5.75
2023-07-27T03:45:00,mnr,5.69
2023-07-27T03:46:00,mnr,8.65
2023-07-27T03:47:00,mnr,8.66
2023-07-27T03:48:00,mnr,8.66
2023-07-27T03:49:00,mnr,8.60
2023-07-27T03:50:00,mnr,8.57
2023-07-27T03:51:00,mnr,8.64
2023-07-27T03:52:00,mnr,8.61
2023-07-27T03:53:00,mnr,6.47
2023-07-27T03:54:00,mnr,6.51
2023-07-27T03:55:00,mnr,6.04
2023-07-27T03:56:00,mnr,5.98
2023-07-27T03:57:00,mnr,6.00
2023-07-27T03:58:00,mnr,6.03
2023-07-27T03:59:00,mnr,5.97
2023-07-27T04:00:00,mnr,6.04
2023-07-27T04:01:00,mnr,6.68
2023-07-27T04:02:00,mnr,5.94
2023-07-27T04:03:00,mnr,5.93
2023-07-27T04:04:00,mnr,5.79
2023-07-27T04:05:00,mnr,6.59
2023-07-27T04:06:00,mnr,6.57
2023-07-27T04:07:00,mnr,6.63
2023-07-27T04:08:00,mnr,6.81
2023-07-27T04:09:00,mnr,6.51
2023-07-27T04:10:00,mnr,6.48
2023-07-27T04:11:00,mnr,6.49
2023-07-27T04:12:00,mnr,6.53
2023-07-27T04:13:00,mnr,6.53
2023-07-27T04:14:00,mnr,6.48
2023-07-27T04:15:00,mnr,6.85
2023-07-27T04:16:00,mnr,6.61
2023-07-27T04:17:00,mnr,6.27
2023-07-27T04:18:00,mnr,6.21
2023-07-27T04:19:00,mnr,6.23
2023-07-27T04:20:00,mnr,5.72
2023-07-27T04:21:00,mnr,6.97
2023-07-27T04:22:00,mnr,5.15
2023-07-27T04:23:00,mnr,5.11
2023-07-27T04:24:00,mnr,4.63
2023-07-27T04:25:00,mnr,5.23
2023-07-27T04:26:00,mnr,5.05
2023-07-27T04:27:00,mnr,5.09
2023-07-27T04:28:00,mnr,5.17
2023-07-27T04:29:00,mnr,5.21
2023-07-27T04:30:00,mnr,5.22
2023-07-27T04:31:00,mnr,5.31
2023-07-27T04:32:00,mnr,4.68
2023-07-27T04:33:00,mnr,5.34
2023-07-27T04:34:00,mnr,4.67
2023-07-27T04:35:00,mnr,4.87
2023-07-27T04:36:00,mnr,4.60
2023-07-27T04:37:00,mnr,5.31
2023-07-27T04:38:00,mnr,4.59
2023-07-27T04:39:00,mnr,4.34
2023-07-27T04:40:00,mnr,4.37
2023-07-27T04:41:00,mnr,4.37
2023-07-27T04:42:00,mnr,4.30
2023-07-27T04:43:00,mnr,4.71
2023-07-27T04:44:00,mnr,4.64
2023-07-27T04:45:00,mnr,4.88
2023-07-27T04:46:00,mnr,4.96
2023-07-27T04:47:00,mnr,4.97
2023-07-27T04:48:00,mnr,4.87
2023-07-27T04:49:00,mnr,4.91
2023-07-27T04:50:00,mnr,4.98
2023-07-27T04:51:00,mnr,5.02
2023-07-27T04:52:00,mnr,5.10
2023-07-27T04:53:00,mnr,5.07
2023-07-27T04:54:00,mnr,5.10
2023-07-27T04:55:00,mnr,5.04
2023-07-27T04:56:00,mnr,5.07
2023-07-27T04:57:00,mnr,5.10
2023-07-27T04:58:00,mnr,5.06
2023-07-27T04:59:00,mnr,5.13
2023-07-27T05:00:00,mnr,5.34
2023-07-27T05:01:00,mnr,5.22
2023-07-27T05:02:00,mnr,5.15
2023-07-27T05:03:00,mnr,5.08
2023-07-27T05:04:00,mnr,5.06
2023-07-27T05:05:00,mnr,5.06
2023-07-27T05:06:00,mnr,5.08
2023-07-27T05:07:00,mnr,5.19
2023-07-27T05:08:00,mnr,5.17
2023-07-27T05:09:00,mnr,5.21
2023-07-27T05:10:00,mnr,5.13
2023-07-27T05:11:00,mnr,5.13
2023-07-27T05:12:00,mnr,8.15
2023-07-27T05:13:00,mnr,8.69
2023-07-27T05:14:00,mnr,8.72
2023-07-27T05:15:00,mnr,8.48
2023-07-27T05:16:00,mnr,7.05
2023-07-27T05:17:00,mnr,7.05
2023-07-27T05:18:00,mnr,7.03
2023-07-27T05:19:00,mnr,6.93
2023-07-27T05:20:00,mnr,7.08
2023-07-27T05:21:00,mnr,6.59
2023-07-27T05:22:00,mnr,6.62
2023-07-27T05:23:00,mnr,6.68
2023-07-27T05:24:00,mnr,6.66
2023-07-27T05:25:00,mnr,6.61
2023-07-27T05:26:00,mnr,6.63
2023-07-27T05:27:00,mnr,6.52
2023-07-27T05:28:00,mnr,6.51
2023-07-27T05:29:00,mnr,6.51
2023-07-27T05:30:00,mnr,5.93
2023-07-27T05:31:00,mnr,6.06
2023-07-27T05:32:00,mnr,6.14
2023-07-27T05:33:00,mnr,6.13
2023-07-27T05:34:00,mnr,6.05
2023-07-27T05:35:00,mnr,6.03
2023-07-27T05:36:00,mnr,5.96
2023-07-27T05:37:00,mnr,5.80
2023-07-27T05:38:00,mnr,5.87
2023-07-27T05:39:00,mnr,5.86
2023-07-27T05:40:00,mnr,5.75
2023-07-27T05:41:00,mnr,5.86
2023-07-27T05:42:00,mnr,5.78
2023-07-27T05:43:00,mnr,5.50
2023-07-27T05:44:00,mnr,5.46
2023-07-27T05:45:00,mnr,4.98
2023-07-27T05:46:00,mnr,5.05
2023-07-27T05:47:00,mnr,5.08
2023-07-27T05:48:00,mnr,5.02
2023-07-27T05:49:00,mnr,4.92
2023-07-27T05:50:00,mnr,4.92
2023-07-27T05:51:00,mnr,5.00
2023-07-27T05:52:00,mnr,4.89
2023-07-27T05:53:00,mnr,4.95
2023-07-27T05:54:00,mnr,5.22
2023-07-27T05:55:00,mnr,5.20
2023-07-27T05:56:00,mnr,5.30
2023-07-27T05:57:00,mnr,5.21
2023-07-27T05:58:00,mnr,5.25
2023-07-27T05:59:00,mnr,5.26
2023-07-27T06:00:00,mnr,5.24
2023-07-27T06:01:00,mnr,6.31
2023-07-27T06:02:00,mnr,8.84
2023-07-27T06:03:00,mnr,8.84
2023-07-27T06:04:00,mnr,9.43
2023-07-27T06:05:00,mnr,11.73
2023-07-27T06:06:00,mnr,14.05
2023-07-27T06:07:00,mnr,13.30
2023-07-27T06:08:00,mnr,12.34
2023-07-27T06:09:00,mnr,12.02
2023-07-27T06:10:00,mnr,12.72
2023-07-27T06:11:00,mnr,12.82
2023-07-27T06:12:00,mnr,12.84
2023-07-27T06:13:00,mnr,12.72
2023-07-27T06:14:00,mnr,12.86
2023-07-27T06:15:00,mnr,12.77
2023-07-27T06:16:00,mnr,12.75
2023-07-27T06:17:00,mnr,12.79
2023-07-27T06:18:00,mnr,12.76
2023-07-27T06:19:00,mnr,12.78
2023-07-27T06:20:00,mnr,14.58
2023-07-27T06:21:00,mnr,13.48
2023-07-27T06:22:00,mnr,13.41
2023-07-27T06:23:00,mnr,13.52
2023-07-27T06:24:00,mnr,13.31
2023-07-27T06:25:00,mnr,13.29
2023-07-27T06:26:00,mnr,13.25
2023-07-27T06:27:00,mnr,13.19
2023-07-27T06:28:00,mnr,12.56
2023-07-27T06:29:00,mnr,13.18
2023-07-27T06:30:00,mnr,13.84
2023-07-27T06:31:00,mnr,13.94
2023-07-27T06:32:00,mnr,14.78
2023-07-27T06:33:00,mnr,23.40
2023-07-27T06:34:00,mnr,14.27
2023-07-27T06:35:00,mnr,14.30
2023-07-27T06:36:00,mnr,14.25
2023-07-27T06:37:00,mnr,14.19
2023-07-27T06:38:00,mnr,14.18
2023-07-27T06:39:00,mnr,14.06
2023-07-27T06:40:00,mnr,14.08
2023-07-27T06:41:00,mnr,13.41
2023-07-27T06:42:00,mnr,14.23
2023-07-27T06:43:00,mnr,14.86
2023-07-27T06:44:00,mnr,15.55
2023-07-27T06:45:00,mnr,22.11
2023-07-27T06:46:00,mnr,24.17
2023-07-27T06:47:00,mnr,14.79
2023-07-27T06:48:00,mnr,14.11
2023-07-27T06:49:00,mnr,14.01
2023-07-27T06:50:00,mnr,14.02
2023-07-27T06:51:00,mnr,14.08
2023-07-27T06:52:00,mnr,14.23
2023-07-27T06:53:00,mnr,14.25
2023-07-27T06:54:00,mnr,14.21
2023-07-27T06:55:00,mnr,14.10
2023-07-27T06:56:00,mnr,14.06
2023-07-27T06:57:00,mnr,13.97
2023-07-27T06:58:00,mnr,13.99
2023-07-27T06:59:00,mnr,13.37
2023-07-27T07:00:00,mnr,13.34
2023-07-27T07:01:00,mnr,12.85
2023-07-27T07:02:00,mnr,12.85
2023-07-27T07:03:00,mnr,12.96
2023-07-27T07:04:00,mnr,12.47
2023-07-27T07:05:00,mnr,12.49
2023-07-27T07:06:00,mnr,13.19
2023-07-27T07:07:00,mnr,12.52
2023-07-27T07:08:00,mnr,12.35
2023-07-27T07:09:00,mnr,12.29
2023-07-27T07:10:00,mnr,11.28
2023-07-27T07:11:00,mnr,10.74
2023-07-27T07:12:00,mnr,10.62
2023-07-27T07:13:00,mnr,10.36
2023-07-27T07:14:00,mnr,10.52
2023-07-27T07:15:00,mnr,10.59
2023-07-27T07:16:00,mnr,10.78
2023-07-27T07:17:00,mnr,10.41
2023-07-27T07:18:00,mnr,10.34
2023-07-27T07:19:00,mnr,10.32
2023-07-27T07:20:00,mnr,10.33
2023-07-27T07:21:00,mnr,10.28
2023-07-27T07:22:00,mnr,10.26
2023-07-27T07:23:00,mnr,10.33
2023-07-27T07:24:00,mnr,11.06
2023-07-27T07:25:00,mnr,12.12
2023-07-27T07:26:00,mnr,12.44
2023-07-27T07:27:00,mnr,12.45
2023-07-27T07:28:00,mnr,12.18
2023-07-27T07:29:00,mnr,12.10
2023-07-27T07:30:00,mnr,12.11
2023-07-27T07:31:00,mnr,12.19
2023-07-27T07:32:00,mnr,12.03
2023-07-27T07:33:00,mnr,12.10
2023-07-27T07:34:00,mnr,12.12
2023-07-27T07:35:00,mnr,12.01
2023-07-27T07:36:00,mnr,12.90
2023-07-27T07:37:00,mnr,13.10
2023-07-27T07:38:00,mnr,12.90
2023-07-27T07:39:00,mnr,12.92
2023-07-27T07:40:00,mnr,12.83
2023-07-27T07:41:00,mnr,12.93
2023-07-27T07:42:00,mnr,12.90
2023-07-27T07:43:00,mnr,13.04
2023-07-27T07:44:00,mnr,13.30
2023-07-27T07:45:00,mnr,12.41
2023-07-27T07:46:00,mnr,12.37
2023-07-27T07:47:00,mnr,12.64
2023-07-27T07:48:00,mnr,12.26
2023-07-27T07:49:00,mnr,12.79
2023-07-27T07:50:00,mnr,12.77
2023-07-27T07:51:00,mnr,12.73
2023-07-27T07:52:00,mnr,12.46
2023-07-27T07:53:00,mnr,12.54
2023-07-27T07:54:00,mnr,12.60
2023-07-27T07:55:00,mnr,12.50
2023-07-27T07:56:00,mnr,12.49
2023-07-27T07:57:00,mnr,12.61
2023-07-27T07:58:00,mnr,13.84
2023-07-27T07:59:00,mnr,14.87
2023-07-27T08:00:00,mnr,18.67
2023-07-27T08:01:00,mnr,17.70
2023-07-27T08:02:00,mnr,17.34
2023-07-27T08:03:00,mnr,19.38
2023-07-27T08:04:00,mnr,18.52
2023-07-27T08:05:00,mnr,18.20
2023-07-27T08:06:00,mnr,18.47
2023-07-27T08:07:00,mnr,18.67
2023-07-27T08:08:00,mnr,19.08
2023-07-27T08:09:00,mnr,18.88
2023-07-27T08:10:00,mnr,18.99
2023-07-27T08:11:00,mnr,19.30
2023-07-27T08:12:00,mnr,19.17
2023-07-27T08:13:00,mnr,19.20
2023-07-27T08:14:00,mnr,19.07
2023-07-27T08:15:00,mnr,19.21
2023-07-27T08:16:00,mnr,19.50
2023-07-27T08:17:00,mnr,19.56
2023-07-27T08:18:00,mnr,19.74
2023-07-27T08:19:00,mnr,19.74
2023-07-27T08:20:00,mnr,19.84
2023-07-27T08:21:00,mnr,20.01
2023-07-27T08:22:00,mnr,20.05
2023-07-27T08:23:00,mnr,21.24
2023-07-27T08:24:00,mnr,20.21
2023-07-27T08:25:00,mnr,20.23
2023-07-27T08:26:00,mnr,20.65
2023-07-27T08:27:00,mnr,20.81
2023-07-27T08:28:00,mnr,19.76
2023-07-27T08:29:00,mnr,20.70
2023-07-27T08:30:00,mnr,20.58
2023-07-27T08:31:00,mnr,20.53
2023-07-27T08:32:00,mnr,20.35
2023-07-27T08:33:00,mnr,20.29
2023-07-27T08:34:00,mnr,20.32
2023-07-27T08:35:00,mnr,19.59
2023-07-27T08:36:00,mnr,20.34
2023-07-27T08:37:00,mnr,20.55
2023-07-27T08:38:00,mnr,19.94
2023-07-27T08:39:00,mnr,19.89
2023-07-27T08:40:00,mnr,19.97
2023-07-27T08:41:00,mnr,20.02
2023-07-27T08:42:00,mnr,20.16
2023-07-27T08:43:00,mnr,20.18
2023-07-27T08:44:00,mnr,20.84
2023-07-27T08:45:00,mnr,19.44
2023-07-27T08:46:00,mnr,20.00
2023-07-27T08:47:00,mnr,20.49
2023-07-27T08:48:00,mnr,22.05
2023-07-27T08:49:00,mnr,21.67
2023-07-27T08:50:00,mnr,21.62
2023-07-27T08:51:00,mnr,21.62
2023-07-27T08:52:00,mnr,22.34
2023-07-27T08:53:00,mnr,23.57
2023-07-27T08:54:00,mnr,24.72
2023-07-27T08:55:00,mnr,25.74
2023-07-27T08:56:00,mnr,26.07
2023-07-27T08:57:00,mnr,28.07
2023-07-27T08:58:00,mnr,29.44
2023-07-27T08:59:00,mnr,30.47
2023-07-27T09:00:00,mnr,31.96
2023-07-27T09:01:00,mnr,32.27
2023-07-27T09:02:00,mnr,33.51
2023-07-27T09:03:00,mnr,34.63
2023-07-27T09:04:00,mnr,35.52
2023-07-27T09:05:00,mnr,36.20
2023-07-27T09:06:00,mnr,35.00
2023-07-27T09:07:00,mnr,34.37
2023-07-27T09:08:00,mnr,32.66
2023-07-27T09:09:00,mnr,31.93
2023-07-27T09:10:00,mnr,31.82
2023-07-27T09:11:00,mnr,31.88
2023-07-27T09:12:00,mnr,32.44
2023-07-27T09:13:00,mnr,32.05
2023-07-27T09:14:00,mnr,32.75
2023-07-27T09:15:00,mnr,33.82
2023-07-27T09:16:00,mnr,35.74
2023-07-27T09:17:00,mnr,37.72
2023-07-27T09:18:00,mnr,40.51
2023-07-27T09:19:00,mnr,43.45
2023-07-27T09:20:00,mnr,46.33
2023-07-27T09:21:00,mnr,47.19
2023-07-27T09:22:00,mnr,40.13
2023-07-27T09:23:00,mnr,42.89
2023-07-27T09:24:00,mnr,44.60
2023-07-27T09:25:00,mnr,37.22
2023-07-27T09:26:00,mnr,38.44
2023-07-27T09:27:00,mnr,38.80
2023-07-27T09:28:00,mnr,32.55
2023-07-27T09:29:00,mnr,33.17
2023-07-27T09:30:00,mnr,33.19
2023-07-27T09:31:00,mnr,33.18
2023-07-27T09:32:00,mnr,33.66
2023-07-27T09:33:00,mnr,34.20
2023-07-27T09:34:00,mnr,35.71
2023-07-27T09:35:00,mnr,35.50
2023-07-27T09:36:00,mnr,32.53
2023-07-27T09:37:00,mnr,31.38
2023-07-27T09:38:00,mnr,30.08
2023-07-27T09:39:00,mnr,29.10
2023-07-27T09:40:00,mnr,28.73
2023-07-27T09:41:00,mnr,27.86
2023-07-27T09:42:00,mnr,27.88
2023-07-27T09:43:00,mnr,27.07
2023-07-27T09:44:00,mnr,27.76
2023-07-27T09:45:00,mnr,27.68
2023-07-27T09:46:00,mnr,28.15
2023-07-27T09:47:00,mnr,28.81
2023-07-27T09:48:00,mnr,27.78
2023-07-27T09:49:00,mnr,27.79
2023-07-27T09:50:00,mnr,27.74
2023-07-27T09:51:00,mnr,28.10
2023-07-27T09:52:00,mnr,27.65
2023-07-27T09:53:00,mnr,27.97
2023-07-27T09:54:00,mnr,28.10
2023-07-27T09:55:00,mnr,28.10
2023-07-27T09:56:00,mnr,28.23
2023-07-27T09:57:00,mnr,30.47
2023-07-27T09:58:00,mnr,28.76
2023-07-27T09:59:00,mnr,28.61
2023-07-27T10:00:00,mnr,28.86
2023-07-27T10:01:00,mnr,27.51
2023-07-27T10:02:00,mnr,25.60
2023-07-27T10:03:00,mnr,24.75
2023-07-27T10:04:00,mnr,24.16
2023-07-27T10:05:00,mnr,23.96
2023-07-27T10:06:00,mnr,24.12
2023-07-27T10:07:00,mnr,23.79
2023-07-27T10:08:00,mnr,23.57
2023-07-27T10:09:00,mnr,24.39
2023-07-27T10:10:00,mnr,23.55
2023-07-27T10:11:00,mnr,24.40
2023-07-27T10:12:00,mnr,25.88
2023-07-27T10:13:00,mnr,25.75
2023-07-27T10:14:00,mnr,25.83
2023-07-27T10:15:00,mnr,25.73
2023-07-27T10:16:00,mnr,24.43
2023-07-27T10:17:00,mnr,24.50
2023-07-27T10:18:00,mnr,24.04
2023-07-27T10:19:00,mnr,24.32
2023-07-27T10:20:00,mnr,24.66
2023-07-27T10:21:00,mnr,26.18
2023-07-27T10:22:00,mnr,25.05
2023-07-27T10:23:00,mnr,25.62
2023-07-27T10:24:00,mnr,25.02
2023-07-27T10:25:00,mnr,24.99
2023-07-27T10:26:00,mnr,24.87
2023-07-27T10:27:00,mnr,25.00
2023-07-27T10:28:00,mnr,25.17
2023-07-27T10:29:00,mnr,24.01
2023-07-27T10:30:00,mnr,23.80
2023-07-27T10:31:00,mnr,23.72
2023-07-27T10:32:00,mnr,24.43
2023-07-27T10:33:00,mnr,23.89
2023-07-27T10:34:00,mnr,24.18
2023-07-27T10:35:00,mnr,23.70
2023-07-27T10:36:00,mnr,23.63
2023-07-27T10:37:00,mnr,23.76
2023-07-27T10:38:00,mnr,23.85
2023-07-27T10:39:00,mnr,24.52
2023-07-27T10:40:00,mnr,23.84
2023-07-27T10:41:00,mnr,23.79
2023-07-27T10:42:00,mnr,23.84
2023-07-27T10:43:00,mnr,23.84
2023-07-27T10:44:00,mnr,24.30
2023-07-27T10:45:00,mnr,24.03
2023-07-27T10:46:00,mnr,24.70
2023-07-27T10:47:00,mnr,24.00
2023-07-27T10:48:00,mnr,23.92
2023-07-27T10:49:00,mnr,23.97
2023-07-27T10:50:00,mnr,23.87
2023-07-27T10:51:00,mnr,23.26
2023-07-27T10:52:00,mnr,23.44
2023-07-27T10:53:00,mnr,27.45
2023-07-27T10:54:00,mnr,29.34
2023-07-27T10:55:00,mnr,32.93
2023-07-27T10:56:00,mnr,38.97
2023-07-27T10:57:00,mnr,44.53
2023-07-27T10:58:00,mnr,47.34
2023-07-27T10:59:00,mnr,46.59
2023-07-27T11:00:00,mnr,39.83
2023-07-27T11:01:00,mnr,43.21
2023-07-27T11:02:00,mnr,48.31
2023-07-27T11:03:00,mnr,31.04
2023-07-27T11:04:00,mnr,26.89
2023-07-27T11:05:00,mnr,27.68
2023-07-27T11:06:00,mnr,28.12
2023-07-27T11:07:00,mnr,25.87
2023-07-27T11:08:00,mnr,24.60
2023-07-27T11:09:00,mnr,24.16
2023-07-27T11:10:00,mnr,24.13
2023-07-27T11:11:00,mnr,24.12
2023-07-27T11:12:00,mnr,24.31
2023-07-27T11:13:00,mnr,23.93
2023-07-27T11:14:00,mnr,23.55
2023-07-27T11:15:00,mnr,23.60
2023-07-27T11:16:00,mnr,23.70
2023-07-27T11:17:00,mnr,23.67
2023-07-27T11:18:00,mnr,23.73
2023-07-27T11:19:00,mnr,23.24
2023-07-27T11:20:00,mnr,21.92
2023-07-27T11:21:00,mnr,21.76
2023-07-27T11:22:00,mnr,21.34
2023-07-27T11:23:00,mnr,21.39
2023-07-27T11:24:00,mnr,21.25
2023-07-27T11:25:00,mnr,20.85
2023-07-27T11:26:00,mnr,20.69
2023-07-27T11:27:00,mnr,20.75
2023-07-27T11:28:00,mnr,20.86
2023-07-27T11:29:00,mnr,20.72
2023-07-27T11:30:00,mnr,20.78
2023-07-27T11:31:00,mnr,20.84
2023-07-27T11:32:00,mnr,21.55
2023-07-27T11:33:00,mnr,20.97
2023-07-27T11:34:00,mnr,21.03
2023-07-27T11:35:00,mnr,21.16
2023-07-27T11:36:00,mnr,20.84
2023-07-27T11:37:00,mnr,20.78
2023-07-27T11:38:00,mnr,20.61
2023-07-27T11:39:00,mnr,20.26
2023-07-27T11:40:00,mnr,20.16
2023-07-27T11:41:00,mnr,20.86
2023-07-27T11:42:00,mnr,20.31
2023-07-27T11:43:00,mnr,20.46
2023-07-27T11:44:00,mnr,20.75
2023-07-27T11:45:00,mnr,21.58
2023-07-27T11:46:00,mnr,21.59
2023-07-27T11:47:00,mnr,21.71
2023-07-27T11:48:00,mnr,21.48
2023-07-27T11:49:00,mnr,21.72
2023-07-27T11:50:00,mnr,21.98
2023-07-27T11:51:00,mnr,22.15
2023-07-27T11:52:00,mnr,22.30
2023-07-27T11:53:00,mnr,22.55
2023-07-27T11:54:00,mnr,24.06
2023-07-27T11:55:00,mnr,23.85
2023-07-27T11:56:00,mnr,23.28
2023-07-27T11:57:00,mnr,23.86
2023-07-27T11:58:00,mnr,23.71
2023-07-27T11:59:00,mnr,24.06
2023-07-27T12:00:00,mnr,23.93
2023-07-27T12:01:00,mnr,23.54
2023-07-27T12:02:00,mnr,23.21
2023-07-27T12:03:00,mnr,22.68
2023-07-27T12:04:00,mnr,22.03
2023-07-27T12:05:00,mnr,21.70
2023-07-27T12:06:00,mnr,21.80
2023-07-27T12:07:00,mnr,22.35
2023-07-27T12:08:00,mnr,22.02
2023-07-27T12:09:00,mnr,21.94
2023-07-27T12:10:00,mnr,21.82
2023-07-27T12:11:00,mnr,21.86
2023-07-27T12:12:00,mnr,22.43
2023-07-27T12:13:00,mnr,21.95
2023-07-27T12:14:00,mnr,21.80
2023-07-27T12:15:00,mnr,21.82
2023-07-27T12:16:00,mnr,21.78
2023-07-27T12:17:00,mnr,23.23
2023-07-27T12:18:00,mnr,23.30
2023-07-27T12:19:00,mnr,21.73
2023-07-27T12:20:00,mnr,21.83
2023-07-27T12:21:00,mnr,22.01
2023-07-27T12:22:00,mnr,21.50
2023-07-27T12:23:00,mnr,22.73
2023-07-27T12:24:00,mnr,23.50
2023-07-27T12:25:00,mnr,22.63
2023-07-27T12:26:00,mnr,25.75
2023-07-27T12:27:00,mnr,29.59
2023-07-27T12:28:00,mnr,33.55
2023-07-27T12:29:00,mnr,35.71
2023-07-27T12:30:00,mnr,35.08
2023-07-27T12:31:00,mnr,34.08
2023-07-27T12:32:00,mnr,34.34
2023-07-27T12:33:00,mnr,25.28
2023-07-27T12:34:00,mnr,25.50
2023-07-27T12:35:00,mnr,25.60
2023-07-27T12:36:00,mnr,25.83
2023-07-27T12:37:00,mnr,24.64
2023-07-27T12:38:00,mnr,24.40
2023-07-27T12:39:00,mnr,24.28
2023-07-27T12:40:00,mnr,24.37
2023-07-27T12:41:00,mnr,29.17
2023-07-27T12:42:00,mnr,29.28
2023-07-27T12:43:00,mnr,31.78
2023-07-27T12:44:00,mnr,34.77
2023-07-27T12:45:00,mnr,36.87
2023-07-27T12:46:00,mnr,39.14
2023-07-27T12:47:00,mnr,38.66
2023-07-27T12:48:00,mnr,22.84
2023-07-27T12:49:00,mnr,20.60
2023-07-27T12:50:00,mnr,20.67
2023-07-27T12:51:00,mnr,19.31
2023-07-27T12:52:00,mnr,18.30
2023-07-27T12:53:00,mnr,18.13
2023-07-27T12:54:00,mnr,18.26
2023-07-27T12:55:00,mnr,18.79
2023-07-27T12:56:00,mnr,18.88
2023-07-27T12:57:00,mnr,18.64
2023-07-27T12:58:00,mnr,18.60
2023-07-27T12:59:00,mnr,18.14
2023-07-27T13:00:00,mnr,18.51
2023-07-27T13:01:00,mnr,18.61
2023-07-27T13:02:00,mnr,19.89
2023-07-27T13:03:00,mnr,19.79
2023-07-27T13:04:00,mnr,20.07
2023-07-27T13:05:00,mnr,19.37
2023-07-27T13:06:00,mnr,19.45
2023-07-27T13:07:00,mnr,19.56
2023-07-27T13:08:00,mnr,19.49
2023-07-27T13:09:00,mnr,19.24
2023-07-27T13:10:00,mnr,27.75
2023-07-27T13:11:00,mnr,20.52
2023-07-27T13:12:00,mnr,19.14
2023-07-27T13:13:00,mnr,19.47
2023-07-27T13:14:00,mnr,19.80
2023-07-27T13:15:00,mnr,20.10
2023-07-27T13:16:00,mnr,20.18
2023-07-27T13:17:00,mnr,20.46
2023-07-27T13:18:00,mnr,20.59
2023-07-27T13:19:00,mnr,20.17
2023-07-27T13:20:00,mnr,19.44
2023-07-27T13:21:00,mnr,19.07
2023-07-27T13:22:00,mnr,18.91
2023-07-27T13:23:00,mnr,18.08
2023-07-27T13:24:00,mnr,17.56
2023-07-27T13:25:00,mnr,17.58
2023-07-27T13:26:00,mnr,17.65
2023-07-27T13:27:00,mnr,17.15
2023-07-27T13:28:00,mnr,17.18
2023-07-27T13:29:00,mnr,17.10
2023-07-27T13:30:00,mnr,18.02